Home   Weather   41°44'N, 93°33'W   Past weeks
Flag for USA

Past Weather in 41°44'N, 93°33'W, USA — Yesterday and Last 2 Weeks

Now
42 °F

Overcast.


Feels Like: 35 °F
Forecast: 46 / 34 °F
Wind: 14 mph from North

Location: Des Moines International Airport

Current Time: Oct 23, 2019 at 9:08:53 pm

Latest Report: Oct 23, 2019 at 7:54 pm


Visibility: 10 mi

Pressure: 30.07 "Hg

Humidity: 79%

Dew Point: 36 °F

Location of 41°44'N, 93°33'WLocation

Past Weather in 41°44'N, 93°33'W — Graph

°F

41°44'N, 93°33'W Temperature Yesterday

Maximum temperature yesterday: 53 °F (at 2:54 pm)
Minimum temperature yesterday: 40 °F (at 11:54 pm)
Average temperature yesterday: 46 °F

High & Low Weather Summary for the Past Weeks

 TemperatureHumidityPressure
High72 °F (Oct 18, 2:54 pm)97% (Oct 10, 8:54 am)30.20 "Hg (Oct 10, 8:54 am)
Low30 °F (Oct 12, 2:54 am)29% (Oct 12, 3:54 pm)29.31 "Hg (Oct 21, 6:54 am)
Average49 °F71%29.87 "Hg
* Reported Oct 8 7:54 pm — Oct 23 7:54 pm, 41°44'N, 93°33'W. Weather by CustomWeather, © 2019

Note: Actual official high and low records may vary slightly from our data, if they occured in-between our weather recording intervals... More about our weather records

Advertising

41°44'N, 93°33'W Weather History for the Previous 24 Hours

Scroll right to see more
 ConditionsComfort  
Time TempWeatherWind HumidityBarometerVisibility
7:54 pm
Wed, Oct 23
42 °FOvercast.14 mph79%30.07 "Hg10 mi
6:54 pm44 °FMostly cloudy.14 mph76%30.02 "Hg10 mi
6:44 pm44 °FMostly cloudy.13 mph76%30.00 "Hg10 mi
5:54 pm45 °FBroken clouds.14 mph74%29.96 "Hg10 mi
4:54 pm48 °FCloudy.17 mph74%29.92 "Hg10 mi
3:54 pm51 °FLight rain. Mostly cloudy.15 mph80%29.86 "Hg10 mi
2:54 pm56 °FMostly cloudy.18 mph65%29.82 "Hg10 mi
1:54 pm57 °FCloudy.3 mph53%29.83 "Hg10 mi
12:54 pm58 °FPartly sunny.10 mph51%29.79 "Hg10 mi
11:54 am56 °FPartly sunny.14 mph60%29.84 "Hg10 mi
10:54 am51 °FScattered clouds.8 mph71%29.85 "Hg10 mi
9:54 am45 °FPartly sunny.8 mph86%29.88 "Hg10 mi
8:54 am43 °FPartly sunny.No wind86%29.86 "Hg10 mi
7:54 am42 °FLight rain. Cloudy.6 mph85%29.85 "Hg10 mi
6:54 am43 °FOvercast.No wind71%29.87 "Hg10 mi
5:54 am40 °FMostly cloudy.No wind80%29.85 "Hg10 mi
4:54 am39 °FOvercast.5 mph82%29.85 "Hg10 mi
3:54 am39 °FPassing clouds.No wind76%29.85 "Hg10 mi
2:54 am37 °FPassing clouds.6 mph79%29.86 "Hg10 mi
1:54 am39 °FPassing clouds.3 mph73%29.85 "Hg10 mi
12:54 am39 °FPassing clouds.3 mph73%29.86 "Hg10 mi
11:54 pm
Tue, Oct 22
40 °FPassing clouds.6 mph70%29.86 "Hg10 mi
10:54 pm43 °FPassing clouds.5 mph62%29.88 "Hg10 mi
9:54 pm43 °FPassing clouds.6 mph60%29.89 "Hg10 mi
Weather by CustomWeather, © 2019

See weather overview